Location: Newark
(49.4900°N, 20.6656°E)
Time: 06:11:59
(UTC+00:00)

STARLINK-1670 - Pass Details

Date: 24 September 2020
Orbit: 378 x 381 km, 53.0° (Epoch: 23 October)

Event Time Altitude Azimuth Distance (km) Brightness Sun altitude
Exits shadow 01:44:55 23° 54° (NE) 874 5.4 -25.8°
Drops below altitude 10° 01:46:20 10° 67° (ENE) 1,394 6.7 -25.6°
Enters shadow 02:41:58 -70° 272° (W) 12,349 10.4 -17.5°
Maximum altitude 03:19:26 52° 13° (NNE) 477 3.5 -11.7°
